Regional Weather Roundup
Issued by NWS Grand Forks, ND

Home | Current Version | Previous Version | Text Only | Print | Product List | Glossary Off
Versions: 1 2 3 4 5 6 7 8 9 10 11 12 13 14 15 16 17 18 19 20 21 22 23 24 25 26 27 28 29 30 31 32 33 34 35 36 37 38 39 40 41 42 43 44 45 46 47 48 49 50

000
ASUS43 KFGF 271610
RWRFGF
PRAIRIE TO PINES  WEATHER ROUNDUP
NATIONAL WEATHER SERVICE EASTERN NORTH DAKOTA/GRAND FORKS ND
1100 AM CDT MON MAR 27 2017

 **SATELLITE DATA USED TO AUGMENT SKY COVER AT AUTOMATED STATIONS**
 *****  WEATHER ACROSS EASTERN NORTH DAKOTA  *****

CITY           SKY/WX    TMP DP  RH WIND       PRES   REMARKS
GRAND FORKS    FOG       38  38 100 VRB6      30.01R VSB 1/4
GRAND FRKS AFB FOG       37  37 100 SE7       30.00F VSB 3/4
DEVILS LAKE    MIX PCPN  35  35 100 SE9       29.96R VSB 1/4
FARGO          FAIR      41  40  96 NE3       30.00S
WAHPETON ARPT    N/A     43  36  75 CALM      30.00S
$$

 ***** WEATHER ACROSS CENTRAL AND WESTERN NORTH DAKOTA  *****

CITY           SKY/WX    TMP DP  RH WIND       PRES   REMARKS
BISMARCK       FAIR      48  38  68 E5        29.94S
MINOT          CLOUDY    39  34  82 NW6       29.93S
JAMESTOWN      FAIR      47  40  76 E7        29.95S
MINOT AFB      FOG       33  33  99 NW6       29.93R VSB 1/2
GARRISON         N/A     43  37  79 CALM      29.92R
WILLISTON      PTSUNNY   48  29  47 CALM      29.91R
DICKINSON      FAIR      50  36  58 S7        29.89R
HETTINGER      FAIR      49  36  61 S7        29.92S
$$

 *****  OTHER AIRPORT OBSERVATIONS IN OUR AREA  *****

CITY           SKY/WX    TMP DP  RH WIND       PRES   REMARKS
WALHALLA       NOT AVBL
GRAFTON AIRPOR FOG       34  34 100 CALM      30.03R VSB<1/4
VALLEY CITY AR FAIR      43  43 100 E7        29.99R
CANDO          NOT AVBL
CAVALIER APRT  MIX PCPN  32  32 100 W13       29.99F VSB<1/4 WCI  22
GWINNER        SUNNY     46  39  76 MISG      29.98S
SHEYENNE NWR     N/A     48  38  68 E6        29.95S
ROLLA          PTSUNNY   34  34 100 CALM      29.94S
 ***** THE ABOVE OBSERVATIONS ARE NON NWS ARE NOT QUALITY
       CONTROLLED AND MAY MIS-REPORT RAIN FOR SNOW...
$$

  *****  WEATHER ACROSS NORTHERN MINNESOTA  *****

CITY           SKY/WX    TMP DP  RH WIND       PRES   REMARKS
FLAG ISLAND    FAIR      36  30  80 S6        30.01R
WARROAD        FAIR      37  34  87 CALM      30.01S
ROSEAU         FAIR      37  34  87 CALM      30.00S
HALLOCK        FOG       32  30  93 CALM      30.02R VSB<1/4
THF RVR FALLS  FOG       37  36  96 CALM      30.02R VSB<1/4
BAUDETTE       FAIR      38  36  92 CALM      30.01R
WASKISH        FAIR      39  37  93 CALM      30.00S
CROOKSTON      FOG       36  36 100 CALM      30.02S VSB 3/4
GREENBUSH NDAW   N/A     32  32 100 SW3         N/A
$$
  *****  WEATHER ACROSS CENTRAL AND WEST MINNESOTA  *****

CITY           SKY/WX    TMP DP  RH WIND       PRES   REMARKS
FOSSTON        FAIR      41  37  87 CALM      30.01R FOG
BEMIDJI        FAIR      43  34  70 NE3       29.99R
PARK RAPIDS    FAIR      48  33  56 CALM      29.98R
ELBOW LAKE     PTSUNNY   41  38  89 E3        30.00R
WADENA         FAIR      46  36  66 E3        29.99R
DETROIT LAKES  FAIR      46  36  66 CALM      30.00S
MOORHEAD       FAIR      43  39  87 CALM      30.01S
FERGUS FALLS   FAIR      45  37  76 CALM      30.02F
MORRIS MN      FAIR      45  39  81 N3        29.98S
STAPLES        CLOUDY    46  34  61 N5        29.99R
$$
  *****  WEATHER ELSEWHERE ACROSS MINNESOTA  *****

CITY           SKY/WX    TMP DP  RH WIND       PRES   REMARKS
DULUTH         CLOUDY    41  35  79 NE3       29.96F
INTRNTL FALLS  FAIR      44  33  65 CALM      30.00R
ELY            FAIR      39  30  70 NE3       29.97S
CLOQUET        FAIR      39  34  81 CALM      29.97F
WHEATON        FAIR      45  37  76 CALM      30.02S
BRAINERD       CLOUDY    46  33  60 NE6       29.98S
HIBBING        PTSUNNY   39  34  82 CALM      29.98R
ALEXANDRIA     CLOUDY    43  37  79 N6        29.99R
SAINT CLOUD    PTSUNNY   47  37  68 NW6       29.98R
MINNEAPOLIS    FAIR      48  35  60 N6        29.98R
$$

  *****  WEATHER ACROSS SOUTH DAKOTA  *****

CITY           SKY/WX    TMP DP  RH WIND       PRES   REMARKS
SIOUX FALLS    PTSUNNY   49  37  63 N8        29.99R
BROOKINGS      FAIR      46  39  76 CALM      29.97S
WATERTOWN      CLOUDY    46  38  73 N3        29.96S
HURON          CLOUDY    48  40  73 S7        29.97F
SISSETON         N/A     45  39  79 S3        29.98S
ABERDEEN       FAIR      50  38  63 VRB5      29.97S
MITCHELL       CLOUDY    48  40  73 S5        29.99S
PIERRE         CLOUDY    47  39  74 SE5       29.94S
MOBRIDGE       FAIR      45  39  79 SE6       29.93R
RAPID CITY     PTSUNNY   39  37  92 SE8       29.90R
$$

  *****  SOME WEATHER IN NEARBY STATES *****

CITY           SKY/WX    TMP DP  RH WIND       PRES   REMARKS
GLASGOW MT     CLOUDY    50  31  48 E10       29.85F
GREAT FALLS MT FAIR      47  29  49 SW10      29.82R
CHEYENNE WY    CLOUDY    43  37  79 SW10      29.94S
SCOTTSBLUFF NE FAIR      49  35  58 CALM      29.91F
OMAHA NE       CLOUDY    47  40  76 N8        29.98S
DES MOINES IA  CLOUDY    47  41  80 N7        29.95R
DAVENPORT IA   CLOUDY    48  44  86 E7        29.94R
CHICAGO IL     CLOUDY    47  44  90 E6        29.95S FOG
EAU CLAIRE WI  CLOUDY    39  34  82 N5        29.96R
LA CROSSE WI   FOG       43  42  97 W6        29.96R VSB 1
$$

  *****  SOME NATIONAL WEATHER *****

CITY           SKY/WX    TMP DP  RH WIND       PRES   REMARKS
LA GUARDIA NY  CLOUDY    42  40  92 NE8       30.06F FOG
RALEIGH NC     PTSUNNY   71  60  68 SW15      30.13F
ATLANTA GA     PTSUNNY   71  61  70 SW13      30.11F
NEW ORLEANS LA PTSUNNY   78  69  73 S16       30.01R
OKLAHOMA CITY  CLOUDY    54  47  77 N17       29.95R
ALBUQUERQUE NM FAIR      53  26  35 CALM      30.03S
SALT LAKE CITY LGT RAIN  48  38  68 W10       29.87F
LOS ANGELES CA PTSUNNY   60  54  80 NE6       30.04R
BOISE ID       FAIR      44  39  82 NW15      29.99R
SEATTLE WA     PTSUNNY   46  43  89 S10       30.02R
$$

*** WEATHER ACROSS MANITOBA...SASKATCHEWAN AND ONTARIO ***
                ***ONTARIO***

CITY           SKY/WX    TMP DP  RH WIND       PRES   REMARKS
GERALDTON      PTSUNNY   45  27  49 VRB9      29.92S
THUNDER BAY    CLOUDY    45  34  65 SW5       29.97R
SIOUX LOOKOUT  PTSUNNY   43  28  56 S5        29.98F
TORONTO        CLOUDY    52  50  93 CALM      29.88S FOG
BIG TROUT LK   CLOUDY    23  16  74 NW12      30.03R WCI  12
PICKLE LAKE    PTSUNNY   34  23  64 CALM      29.99F
DRYDEN         CLOUDY    43  28  56 SE6       29.98S
KENORA         PTSUNNY   41  30  65 SE5       30.00S
$$
                *** MANITOBA***

CITY           SKY/WX    TMP DP  RH WIND       PRES   REMARKS
BRANDON        CLOUDY    36  30  80 E15       30.00R
DAUPHIN        CLOUDY    34  30  86 NE7       30.06R
ISLAND LAKE    CLOUDY    25  16  68 N6        30.12R WCI  18
PILOT MOUND      N/A     34  34 100 E9          N/A
THE PAS        CLOUDY    27  18  69 E8        30.15R WCI  18
THOMPSON       FLURRIES  14   9  79 N8        30.19S WCI   3
WINNIPEG       PTSUNNY   34  28  80 NE9       30.02S
LYNN LAKE      SUNNY     16  12  86 S3        30.19R
CHURCHILL      CRYSTALS   5   1  85 NW13      30.24R WCI -12
GILLAM         LGT SNOW  16   9  73 N12       30.16R WCI   3
$$
                ***SASKATCHEWAN***

CITY           SKY/WX    TMP DP  RH WIND       PRES   REMARKS
ESTEVAN        FOG       30  30 100 E10       29.94R VSB 1/2 WCI  21
KINDERSLEY     FOG       30  30 100 E14       29.89R VSB 1   WCI  20
LLOYDMINSTER   SNOW      27  27 100 E14       29.91R VSB 1/2 WCI  15
PRINCE ALBERT  PTSUNNY   28  23  80 E8        30.05S WCI  20
REGINA         FOG       30  30 100 E6        29.96R VSB 1/2 WCI  24
YORKTON        CLOUDY    34  34 100 E8        30.01R
N. BATTLEFORD  CLOUDY    30 N/A N/A SE17G23   29.98R WCI  18
LA RONGE       MOSUNNY   19  18  93 NE5       30.13R WCI  13
SASKATOON      NOT AVBL
SWIFT CURRENT  PTSUNNY   30  30 100 E9        29.88R WCI  22
$$
NOTE: THESE ARE AUTOMATED STATIONS WITH LIMITED QUALITY CONTROL
      "FAIR" INDICATES FEW OR NO CLOUDS BELOW 12,000 FEET WITH NO
      SIGNIFICANT WEATHER AND/OR OBSTRUCTIONS TO VISIBILITY.
      SKY/WX - SKY CONDITION AND SIGNIFICANT WEATHER.
      TMP - AIR TEMPERATURE.    DP   - DEWPOINT TEMPERATURE.
      RH  - RELATIVE HUMIDITY.  PRES - PRESSURE.
      HX  - HEAT INDEX.         WCI  - WIND CHILL INDEX.
$




USA.gov is the U.S. government's official web portal to all federal, state and local government web resources and services.